SCP
0 0 0 0 0 0 0 0 0 0 0 0 0 0 0 0 0 0 0 0 0 0 0 0 0 0 0 0 0 0 0 0 0 0 0 0 0 0 0 0 0 0 0 0 0 0 0 0 0 0 0 0 0 0
0 0 0 0 0 0 0 0 0 0 0 0 0 0 0 0 0 0 0 0 0 0 0 0 0 0 0 0 0 0 0 0 0 0 0 0 0 0 0 0 0 0 0 0 0 0 0 -0 0 0 0 0 0 0
0 0 0 0 0 0 0 0 0 0 0 0 0 0 0 0 0 0 0 0 0 0 0 0 0 0 0 0 0 0 0 0 0 0 0 0 0 0 0 0 0 0 0 0 0 0 0 0 0 0 0 0 0 0
0 0 0 0 0 0 0 0 0 0 0 0 0 0 0 0 0 0 0 0 0 0 0 0 0 0 0 0 0 0 0 0 0 0 0 0 0 0 0 0 0 0 0 0 0 0 0 0 0 0 0 0 0 0
0 0 0 0 0 0 0 0 0 0 0 0 0 0 0 0 0 0 0 0 0 0 0 0 0 0 0 0 0 0 0 0 0 0 0 0 0 0 0 0 0 0 0 0 0 0 0 0 0 0 0 0 0 0
0 0 0 0 0 0 0 0 0 0 0 0 0 0 0 0 0 0 0 0 0 0 0 0 0 0 0 0 0 0 0 0 0 0 0 0 0 0 0 0 0 0 0 0 0 0 0 0 0 0 0 0 0 0
0 0 0 0 0 0 0 0 0 0 0 0 0 0 0 0 0 0 0 0 0 -0 0 0 0 0 0 0 0 0 0 0 0 0 0 0 0 0 0 0 0 0 0 0 0 0 0 0 0 0 0 0 0 0
0 0 0 0 0 0 0 0 0 0 0 0 0 0 0 0 0 0 0 0 0 0 0 0 0 0 0 0 0 0 0 0 0 0 0 0 0 0 0 0 0 0 0 0 0 0 0 0 0 0 0 0 0 0
0 0 0 0 0 0 0 0 0 0 0 -0 -0 -0 0 0 0 0 0 -0 0 -0 0 0 0 0 0 0 0 0 0 0 0 0 0 0 0 0 0 0 0 0 0 0 0 0 0 0 0 0 0 0 0 0
0 0 0 0 0 0 0 0 -0 -0 -0 -0 0 0 -0 0 0 -0 0 0 0 0 0 0 0 0 0 -0 -0 0 0 0 0 0 0 0 0 0 0 0 0 0 0 0 0 0 0 0 0 0 0 0 0 0
0 0 0 0 0 0 0 0 0 0 -0 0 -0 -0 -0 -0 0 0 0 0 0 0 0 0 0 0 0 0 0 0 0 0 0 0 0 0 0 0 0 0 0 0 0 0 0 0 0 0 0 0 0 0 0 0
0 0 0 0 0 0 0 0 0 -0 -0 0 -0 0 0 0 0 0 0 0 -0 0 0 0 0 0 0 0 0 0 0 0 0 0 0 0 0 0 0 0 0 0 0 0 0 0 0 0 0 0 0 0 0 0
0 0 0 0 0 0 0 0 0 0 0 -0 0 0 -0 0 0 0 0 0 0 0 0 0 0 0 0 0 0 0 0 0 0 0 0 0 0 0 0 0 0 0 0 0 0 0 0 0 0 0 0 0 0 0
0 0 0 0 0 0 0 0 0 0 0 0 0 0 0 0 0 0 0 0 0 0 0 0 0 0 0 0 0 0 0 0 0 0 0 0 0 0 -0 0 0 0 0 0 0 0 0 0 0 0 0 0 0 0
0 0 0 0 0 0 0 0 0 0 0 0 0 0 0 0 0 0 0 0 0 0 0 0 0 0 0 0 0 0 0 0 0 0 0 0 0 0 0 -0 0 0 0 0 0 0 0 0 0 0 0 0 0 0
0 0 0 0 0 -0 0 0 0 0 0 0 0 0 0 0 0 0 0 0 0 0 0 0 0 0 0 0 0 0 0 0 0 0 0 0 0 0 0 0 0 0 0 0 0 0 0 0 0 0 0 0 0 0
0 0 0 -0 0 0 0 0 0 0 0 0 0 0 0 0 0 0 0 0 0 0 0 0 0 0 0 0 0 0 0 0 0 0 0 0 0 0 0 0 0 0 0 0 0 0 0 0 0 0 0 0 0 0
0 0 0 0 0 0 -0 -0 -0 0 0 0 0 0 0 0 0 0 0 0 0 0 0 0 0 0 0 0 0 0 0 0 0 0 0 0 0 0 0 0 0 0 0 0 0 0 0 0 0 0 0 0 0 0
0 0 0 0 -0 -0 -0 -0 -0 -0 0 0 0 0 0 0 0 0 0 0 0 0 0 0 0 0 0 0 0 0 0 0 0 0 0 0 0 0 0 0 0 0 0 0 0 0 0 0 0 0 0 0 -0 0
-0 0 -0 -0 -0 0 0 -0 -0 0 0 0 0 0 0 0 0 -0 0 0 0 0 0 0 0 0 0 0 0 0 0 0 0 0 0 0 0 0 0 0 0 0 0 0 0 0 0 0 0 0 0 0 0 0
0 0 0 0 0 0 0 -0 0 0 0 0 0 0 0 0 0 -0 -0 0 -0 0 0 0 0 0 0 0 0 0 0 0 0 0 0 0 0 0 0 0 0 0 0 0 0 0 0 0 -0 0 0 0 0 0
0 0 0 0 0 0 0 0 0 0 0 0 0 0 0 0 0 0 0 0 0 0 0 0 0 0 0 -0 -0 -0 -0 0 0 0 0 0 0 0 0 0 0 0 0 0 0 0 0 0 0 0 0 0 0 0
0 0 0 0 0 0 0 0 0 0 0 0 0 0 0 0 -0 -0 0 0 0 0 0 0 0 0 0 0 0 0 0 -0 -0 0 0 0 0 0 0 0 0 0 0 0 0 0 0 0 0 0 0 0 0 0
0 0 0 0 0 0 0 0 0 0 0 0 0 0 0 0 0 0 0 0 0 0 -0 -0 -0 0 0 0 0 0 0 0 0 0 0 0 0 0 0 0 0 0 0 0 0 0 0 0 0 0 0 0 0 0
0 0 0 0 0 0 0 0 0 0 0 0 0 0 0 0 0 0 0 0 0 0 0 0 -0 0 0 0 0 0 0 0 0 0 0 0 0 0 0 0 0 0 0 0 0 0 0 0 0 0 0 0 0 0
0 0 0 0 0 0 0 0 0 0 0 0 0 0 0 0 0 0 0 0 0 0 0 0 0 0 0 0 0 0 0 0 0 0 -0 0 0 0 0 0 0 0 0 0 0 0 0 0 0 0 0 0 0 0
0 0 0 0 0 0 0 0 0 0 0 0 0 0 0 -0 0 0 -0 -0 0 0 0 0 0 0 0 0 0 0 0 0 0 0 0 0 0 0 0 0 0 0 0 0 -0 -0 0 -0 0 0 0 0 0 0
0 0 0 0 0 0 0 0 0 0 0 0 0 0 0 0 0 0 0 0 0 0 0 -0 0 0 0 0 0 -0 0 -0 -0 -0 0 0 0 0 -0 -0 -0 -0 0 0 0 0 0 0 0 0 0 0 0 0
0 0 0 0 0 0 0 0 0 0 0 0 0 0 0 0 0 0 0 0 0 0 0 0 0 0 0 0 0 0 0 0 -0 0 -0 0 -0 0 -0 -0 -0 0 -0 -0 -0 0 -0 -0 0 0 0 0 0 0
0 0 0 0 0 0 0 0 0 0 0 0 0 0 0 0 0 0 0 0 0 0 0 0 0 0 0 0 -0 0 0 -0 0 0 0 -0 -0 0 -0 -0 -0 -0 -0 -0 -0 -0 -0 -0 -0 -0 -0 -0 0 0
0 0 0 0 0 0 0 0 0 0 0 0 0 0 0 0 0 0 0 0 0 -0 -0 -0 -0 -0 -0 0 0 0 0 -0 -0 -0 -0 -0 0 -0 -0 -0 -0 -0 -0 -0 -0 -0 -0 -0 0 0 -0 -0 -0 0
0 0 0 0 0 0 0 0 0 0 0 0 0 0 0 0 0 0 0 -0 0 0 -0 0 0 0 0 -0 0 -0 -0 -0 -0 0 -0 -0 -0 -0 -0 0 -0 -0 -0 -0 -0 -0 -0 -0 -0 -0 -0 -0 -0 -0
0 0 0 0 0 0 0 0 0 0 0 0 0 0 0 0 -0 -0 -0 -0 0 0 0 -0 0 0 0 0 -0 -0 -0 -0 0 -0 -0 0 0 0 0 0 0 0 -0 -0 -0 -0 -0 -0 -0 -0 -0 0 0 -0
Wind_Speed_500mb
30 29 28 24 27 29 31 26 22 22 19 21 20 13 14 17 23 25 26 24 31 14 31 23 13 14 6 4 8 13 13 1 5 7 6 8 5 10 8 12 16 18 17 10 7 11 16 28 20 18 14 15 15 28
30 29 25 22 23 22 24 22 21 22 18 19 21 13 14 17 23 21 25 22 24 35 21 21 32 48 46 35 19 11 9 10 9 3 1 7 5 3 6 12 1 12 10 14 19 12 5 56 31 38 22 16 19 28
28 25 21 20 17 17 21 21 18 20 22 19 20 12 12 17 23 24 24 21 20 20 39 44 45 36 31 48 46 16 11 10 6 8 3 5 4 5 6 5 7 7 6 8 10 15 16 40 33 29 32 23 22 27
24 20 20 16 15 14 15 21 18 23 27 25 21 14 14 18 19 22 24 22 20 9 8 18 26 33 33 31 47 61 51 19 19 23 7 5 6 2 1 1 4 4 14 11 6 3 9 16 44 31 33 27 21 23
19 17 16 12 9 15 17 20 20 21 30 25 16 12 14 17 22 23 26 27 23 15 7 18 52 47 11 38 37 40 45 42 25 9 5 6 9 5 1 3 6 15 11 12 12 26 24 24 53 42 33 32 25 30
17 15 12 15 15 17 21 23 25 27 24 20 17 12 13 17 18 17 10 12 23 20 9 7 17 14 3 20 40 47 39 26 14 8 3 9 20 7 5 6 6 23 22 25 2 7 27 9 29 41 36 32 31 31
22 20 12 12 15 16 19 19 23 24 19 15 12 14 16 17 18 15 7 3 19 17 7 7 11 9 6 28 20 21 29 16 9 10 6 6 16 12 4 7 7 22 21 21 20 8 12 28 24 40 38 34 34 30
23 21 19 16 16 16 15 18 21 18 17 13 13 12 11 12 14 22 19 4 16 15 12 5 7 12 7 10 13 19 18 18 16 10 9 21 12 9 11 24 43 28 22 27 27 25 12 20 26 39 38 36 35 30
23 18 15 13 14 12 12 14 18 21 19 14 14 13 10 10 8 10 13 18 19 20 8 5 5 1 9 7 10 16 17 9 13 9 10 14 11 10 12 25 33 30 21 22 31 29 29 18 29 30 40 39 35 33
21 15 13 11 14 12 14 16 16 22 15 10 23 4 5 5 10 7 1 3 8 6 6 6 10 7 6 2 8 9 10 7 8 10 8 7 11 30 37 24 21 23 24 17 17 18 30 21 27 36 36 34 38 34
18 14 13 14 15 17 16 15 16 12 15 19 7 7 11 15 9 6 6 7 7 7 13 12 29 10 8 4 2 5 5 5 6 6 6 4 7 15 44 61 54 44 29 26 21 21 19 22 20 31 31 28 33 33
17 16 13 15 15 16 14 13 13 11 7 12 22 21 9 3 5 5 5 6 9 5 8 7 11 18 8 4 5 3 3 3 3 7 4 4 3 15 21 17 46 60 57 43 39 39 34 17 19 29 27 29 30 31
16 14 14 15 14 12 10 11 10 8 14 11 6 5 4 4 3 6 5 4 5 3 2 10 6 5 4 4 2 3 3 4 5 6 5 4 13 19 21 15 10 22 39 58 56 50 47 25 26 25 27 25 24 29
13 10 15 13 14 10 10 12 10 7 7 3 4 6 5 6 7 7 5 4 4 7 20 18 7 4 2 4 2 4 3 4 3 4 3 5 11 17 16 14 9 1 14 30 44 41 40 43 41 26 26 26 25 33
7 9 9 9 12 13 13 8 8 8 4 5 6 6 9 11 12 15 14 11 10 11 14 4 5 3 2 4 2 3 4 5 5 1 4 3 8 17 21 18 22 23 17 7 15 27 37 43 34 31 28 30 30 32
5 5 8 6 8 10 7 7 2 8 6 6 9 7 11 7 9 8 10 11 7 13 11 2 3 3 4 1 5 7 5 4 2 2 4 7 14 22 27 29 23 18 22 27 24 9 13 30 39 42 33 36 39 37
9 2 4 9 10 10 8 5 8 9 7 9 10 14 20 20 17 13 17 9 13 18 4 4 4 2 4 5 5 4 2 3 5 10 9 9 19 21 22 23 27 26 23 19 14 11 12 7 9 24 30 31 37 38
10 2 3 1 4 8 13 4 4 7 11 15 13 12 7 14 13 21 16 13 11 5 4 3 1 4 6 3 3 1 4 4 9 9 11 15 16 14 15 16 19 21 23 23 26 18 11 16 5 12 12 14 22 31
8 6 5 5 9 6 4 6 7 7 13 12 18 25 25 23 28 27 38 30 15 10 6 3 5 5 5 5 4 3 2 9 11 7 5 8 6 4 2 4 9 12 16 20 23 26 23 21 10 8 8 22 31 31
10 3 9 4 13 3 5 7 8 8 9 5 14 16 15 19 27 25 25 27 20 8 9 7 8 6 6 11 2 10 13 13 10 7 10 11 6 8 7 8 10 7 9 15 19 20 20 18 17 13 16 18 24 32
12 1 2 4 8 8 7 5 8 8 11 10 15 13 11 18 22 19 21 28 13 10 11 22 28 37 37 34 27 22 14 9 10 11 11 8 5 2 6 6 4 4 8 15 21 25 24 18 11 3 14 26 19 26
12 6 6 6 4 5 8 8 9 15 10 11 14 8 11 8 8 8 10 13 10 26 35 43 52 51 48 45 47 51 47 36 28 26 23 19 17 14 13 12 12 13 19 23 25 23 20 19 17 18 18 16 17 20
11 10 1 7 5 5 7 8 5 5 5 6 8 6 7 6 6 6 7 9 11 17 20 23 27 27 31 29 30 36 42 44 40 33 27 25 26 24 22 24 29 34 35 34 31 28 25 22 22 22 21 20 20 20
7 6 5 6 8 5 5 5 7 7 7 6 5 7 5 6 4 5 5 6 9 10 11 13 17 21 19 19 21 24 28 30 29 27 23 25 29 34 37 39 41 42 40 35 32 31 29 30 27 26 25 24 23 21
5 5 5 4 6 5 5 5 7 5 6 5 5 6 3 4 4 4 5 2 11 8 16 25 20 20 20 19 16 15 15 22 26 29 29 29 29 26 26 31 32 29 28 31 37 39 39 37 37 37 33 30 28 24
4 7 9 5 5 6 5 5 2 4 6 6 7 7 5 4 5 4 3 8 12 19 24 28 29 27 19 12 10 6 6 14 19 21 15 14 18 22 21 23 25 21 20 23 29 36 41 44 44 43 39 33 29 23
4 6 11 8 7 8 10 13 13 9 8 5 4 6 5 4 4 5 8 12 22 26 29 27 22 18 15 9 7 2 4 5 8 10 10 9 6 9 9 8 9 15 18 18 22 27 33 33 29 23 23 23 21 19
8 5 7 3 6 9 7 7 6 4 6 10 12 6 8 4 5 8 23 23 24 21 24 19 13 10 11 3 2 3 2 3 4 7 9 5 3 4 8 7 13 23 30 35 9 9 7 11 11 9 5 7 12 20
7 6 5 12 10 10 10 8 2 3 10 5 3 4 7 12 23 40 29 21 22 18 15 9 4 7 11 13 10 3 2 7 7 5 2 3 2 6 7 10 12 21 27 30 32 16 11 12 16 15 7 13 18 22
9 15 8 7 8 9 12 18 27 30 32 33 26 26 40 46 42 27 18 15 16 13 5 6 7 6 6 8 13 15 12 11 6 4 3 2 3 4 9 10 10 11 10 15 24 34 39 31 25 18 21 28 27 29
4 10 8 11 10 16 24 29 36 35 28 30 34 40 36 20 16 7 5 9 14 13 11 9 7 7 9 13 17 19 17 16 15 15 15 13 14 14 12 7 7 13 17 22 24 26 31 44 51 56 55 50 44 42
12 16 8 6 9 16 29 9 7 6 7 7 7 8 5 4 4 2 3 8 9 9 12 11 16 26 25 21 21 20 20 20 20 21 20 21 25 25 23 22 22 22 23 24 33 39 43 44 39 32 29 28 29 28
14 13 12 11 9 7 6 9 4 5 4 4 1 1 2 2 1 4 7 8 10 10 11 11 13 16 20 27 23 20 17 19 23 24 31 39 45 48 50 47 40 34 34 38 38 36 37 44 44 44 41 40 40 39
Wind_Direction_500mb
307 310 308 311 317 323 326 323 317 309 301 301 307 299 298 275 264 262 266 253 218 231 256 254 235 220 205 232 269 334 320 165 259 218 231 200 161 175 155 145 169 164 165 184 150 210 247 157 138 199 203 189 205 202
307 309 312 315 317 334 333 325 317 312 305 308 312 285 281 267 274 277 267 274 251 235 261 265 256 247 244 238 266 267 282 321 289 306 161 284 132 154 155 176 175 188 198 173 200 204 126 177 186 204 194 194 203 198
308 312 316 314 308 326 325 322 323 326 321 314 316 317 275 267 272 278 274 266 253 257 275 266 262 273 266 250 235 240 250 223 282 305 7 349 303 124 176 194 137 186 184 148 162 188 202 200 206 208 211 203 209 202
311 314 323 319 330 319 313 314 315 319 326 317 317 285 262 275 274 271 268 269 241 240 265 268 271 266 278 255 225 231 234 252 304 313 47 343 307 204 279 120 221 122 155 158 232 161 162 220 212 211 207 207 200 198
306 314 327 328 328 318 315 316 318 323 339 330 306 288 266 267 273 276 271 263 239 224 293 288 293 290 251 222 214 222 226 235 246 262 154 287 294 256 164 213 221 190 163 192 216 192 179 202 209 208 206 199 195 181
300 302 322 328 316 311 314 318 320 332 330 320 310 298 271 266 269 268 291 251 216 217 280 294 281 281 314 198 217 221 224 208 199 179 332 207 262 304 257 222 234 197 193 209 213 248 204 180 204 205 201 202 192 193
297 285 277 304 316 317 324 336 336 333 322 313 316 301 281 270 253 225 243 297 194 186 255 254 282 281 309 189 190 175 185 190 177 170 225 259 254 219 250 255 273 221 223 221 222 223 210 213 200 197 199 198 199 207
308 279 266 268 291 303 318 332 336 333 330 297 292 280 274 266 259 252 239 244 212 204 259 281 281 301 156 144 171 179 164 183 214 228 198 215 177 207 242 237 254 267 251 234 229 211 210 197 196 195 199 202 205 214
316 311 274 277 274 296 317 324 347 345 322 297 280 301 307 242 236 206 208 227 261 224 291 291 298 326 288 165 158 167 162 163 191 210 214 182 190 213 225 222 230 224 207 211 214 216 223 212 203 206 208 210 215 222
301 311 298 278 262 281 305 304 316 343 345 16 321 276 262 253 245 229 329 168 185 245 232 258 264 276 284 283 192 165 191 163 173 207 154 218 240 231 235 253 247 219 188 172 166 185 203 205 204 210 214 221 230 231
284 287 292 284 270 266 286 298 304 326 302 310 312 316 317 274 187 225 209 211 193 240 205 216 208 255 258 246 180 214 152 152 204 151 221 218 246 238 239 234 236 241 235 230 223 212 218 237 230 229 227 229 233 227
284 267 286 281 267 265 278 293 303 319 324 293 297 300 274 241 246 261 215 181 214 254 211 215 209 221 254 257 250 92 108 194 166 131 214 253 279 333 331 281 235 236 249 247 241 237 232 242 261 272 269 249 235 227
281 259 285 278 249 244 266 287 287 290 325 307 280 270 243 208 274 248 226 217 264 195 235 310 286 222 245 234 208 208 181 108 154 201 230 274 344 340 341 336 244 233 238 240 238 234 237 251 289 264 244 241 243 227
278 277 287 257 233 237 273 292 276 266 325 283 280 290 236 213 234 231 254 293 308 260 315 309 266 234 219 209 55 178 75 169 221 227 238 28 350 6 18 30 56 122 241 229 227 234 231 242 277 247 228 234 233 212
264 290 254 251 219 235 281 258 262 222 278 268 250 239 231 255 273 283 295 287 253 315 330 284 242 278 157 194 74 103 173 214 236 285 48 343 17 44 53 72 75 74 75 116 196 215 233 245 245 224 228 231 233 219
251 227 230 244 252 270 273 229 225 212 243 250 236 265 250 268 314 311 330 311 316 336 344 318 307 217 110 319 213 221 188 216 85 88 145 116 102 78 73 71 73 80 73 66 66 81 223 234 232 229 228 230 234 225
201 200 283 244 250 238 209 212 182 198 218 247 249 246 263 277 269 282 328 336 321 334 337 329 317 3 311 223 223 207 243 87 138 149 149 133 116 96 84 72 69 74 72 63 54 43 46 52 227 219 224 230 233 230
174 290 163 157 203 182 177 226 280 225 239 248 256 271 234 244 270 272 278 302 327 254 261 330 343 240 266 225 173 165 235 188 156 125 131 133 124 100 77 67 62 60 62 57 48 46 54 53 48 210 194 223 262 234
189 154 121 140 156 147 186 224 235 265 250 264 267 275 273 269 266 253 276 283 292 271 279 268 257 242 239 232 274 278 121 102 110 85 106 144 130 124 129 95 81 74 68 55 40 33 39 35 15 62 261 226 272 230
180 97 165 201 201 267 249 214 223 255 268 282 270 270 266 266 275 272 264 267 264 234 216 221 231 228 225 344 181 100 77 78 83 69 79 100 113 129 111 132 134 92 37 9 2 353 347 352 345 335 350 313 237 216
187 174 64 189 212 259 265 259 250 258 287 273 285 288 269 266 262 260 257 257 220 222 235 240 253 261 267 273 273 276 277 354 351 341 340 330 304 219 192 185 212 289 321 324 326 331 331 321 330 345 280 297 270 235
187 155 208 222 244 256 264 244 264 292 270 270 290 246 265 260 246 229 211 194 233 241 240 257 268 279 282 276 264 262 262 267 291 299 303 302 313 294 272 263 264 277 299 303 299 295 295 293 302 308 294 292 280 253
158 198 210 223 234 245 269 284 271 258 270 280 293 264 240 250 241 201 238 225 243 254 256 272 284 289 287 277 257 247 246 254 265 276 281 277 277 293 296 291 294 293 294 293 287 265 261 267 281 302 298 277 279 258
173 184 253 204 214 265 275 246 239 261 269 259 248 264 231 240 247 242 254 245 242 283 299 314 312 311 309 287 274 264 246 242 247 246 258 276 286 288 284 286 290 289 283 271 260 256 254 257 270 285 299 288 265 258
180 236 244 228 226 246 248 251 230 234 256 239 259 268 274 258 253 238 242 300 328 326 348 347 338 334 313 305 305 268 240 231 239 251 257 272 280 283 286 295 295 291 281 265 254 252 256 255 259 270 280 282 266 261
244 217 190 224 207 208 227 259 235 302 275 259 239 265 285 287 258 276 9 331 334 334 339 336 330 327 338 327 315 259 238 233 239 246 256 280 285 288 297 304 306 301 285 270 261 257 255 255 257 261 264 259 253 251
246 236 222 233 268 290 274 253 240 239 255 257 346 327 343 267 302 287 302 327 326 330 327 325 319 321 337 33 66 87 233 246 250 251 247 260 266 327 342 15 23 11 353 311 281 268 256 251 250 251 244 238 243 233
250 283 240 232 247 240 267 279 263 306 334 348 334 14 344 300 272 305 309 320 313 318 328 328 326 326 329 276 294 96 98 337 135 146 145 165 345 44 57 75 37 18 12 16 17 71 112 154 163 168 184 256 222 196
242 237 242 256 237 243 232 235 234 258 240 280 288 227 237 243 282 317 326 322 323 328 336 346 31 41 72 71 63 18 253 139 118 140 128 231 245 158 123 80 47 20 10 14 30 62 91 107 124 136 131 126 113 122
239 198 218 240 227 226 228 203 248 258 261 255 258 269 270 281 296 299 304 325 337 341 13 116 97 94 96 75 44 59 118 137 121 130 108 101 102 169 214 267 289 326 10 57 57 72 80 88 100 110 122 120 123 126
200 184 230 237 258 247 248 253 268 272 259 256 254 248 260 284 312 336 338 12 34 74 86 58 60 123 116 106 95 93 94 95 92 86 88 101 101 103 103 89 82 104 109 98 91 95 95 99 100 101 102 102 103 105
207 213 226 248 264 285 301 263 251 247 226 225 230 229 257 241 268 29 82 48 43 57 61 68 95 110 98 96 106 108 111 104 94 85 83 88 96 98 98 98 101 110 114 108 102 105 107 106 105 104 102 102 109 112
215 227 232 265 263 273 283 313 267 303 253 272 20 339 250 270 12 117 112 61 63 68 81 104 120 106 100 102 105 109 112 105 104 94 97 97 95 94 91 89 91 99 106 105 104 102 101 102 102 104 105 105 107 108
Wind_Speed_850mb
30 29 28 24 27 29 31 26 22 22 19 21 20 13 14 17 23 25 26 24 31 14 31 23 13 14 6 4 8 13 13 1 5 7 6 8 5 10 8 12 16 18 17 10 7 11 16 28 20 18 14 15 15 28
30 29 25 22 23 22 24 22 21 22 18 19 21 13 14 17 23 21 25 22 24 35 21 21 32 48 46 35 19 11 9 10 9 3 1 7 5 3 6 12 1 12 10 14 19 12 5 56 31 38 22 16 19 28
28 25 21 20 17 17 21 21 18 20 22 19 20 12 12 17 23 24 24 21 20 20 39 44 45 36 31 48 46 16 11 10 6 8 3 5 4 5 6 5 7 7 6 8 10 15 16 40 33 29 32 23 22 27
24 20 20 16 15 14 15 21 18 23 27 25 21 14 14 18 19 22 24 22 20 9 8 18 26 33 33 31 47 61 51 19 19 23 7 5 6 2 1 1 4 4 14 11 6 3 9 16 44 31 33 27 21 23
19 17 16 12 9 15 17 20 20 21 30 25 16 12 14 17 22 23 26 27 23 15 7 18 52 47 11 38 37 40 45 42 25 9 5 6 9 5 1 3 6 15 11 12 12 26 24 24 53 42 33 32 25 30
17 15 12 15 15 17 21 23 25 27 24 20 17 12 13 17 18 17 10 12 23 20 9 7 17 14 3 20 40 47 39 26 14 8 3 9 20 7 5 6 6 23 22 25 2 7 27 9 29 41 36 32 31 31
22 20 12 12 15 16 19 19 23 24 19 15 12 14 16 17 18 15 7 3 19 17 7 7 11 9 6 28 20 21 29 16 9 10 6 6 16 12 4 7 7 22 21 21 20 8 12 28 24 40 38 34 34 30
23 21 19 16 16 16 15 18 21 18 17 13 13 12 11 12 14 22 19 4 16 15 12 5 7 12 7 10 13 19 18 18 16 10 9 21 12 9 11 24 43 28 22 27 27 25 12 20 26 39 38 36 35 30
23 18 15 13 14 12 12 14 18 21 19 14 14 13 10 10 8 10 13 18 19 20 8 5 5 1 9 7 10 16 17 9 13 9 10 14 11 10 12 25 33 30 21 22 31 29 29 18 29 30 40 39 35 33
21 15 13 11 14 12 14 16 16 22 15 10 23 4 5 5 10 7 1 3 8 6 6 6 10 7 6 2 8 9 10 7 8 10 8 7 11 30 37 24 21 23 24 17 17 18 30 21 27 36 36 34 38 34
18 14 13 14 15 17 16 15 16 12 15 19 7 7 11 15 9 6 6 7 7 7 13 12 29 10 8 4 2 5 5 5 6 6 6 4 7 15 44 61 54 44 29 26 21 21 19 22 20 31 31 28 33 33
17 16 13 15 15 16 14 13 13 11 7 12 22 21 9 3 5 5 5 6 9 5 8 7 11 18 8 4 5 3 3 3 3 7 4 4 3 15 21 17 46 60 57 43 39 39 34 17 19 29 27 29 30 31
16 14 14 15 14 12 10 11 10 8 14 11 6 5 4 4 3 6 5 4 5 3 2 10 6 5 4 4 2 3 3 4 5 6 5 4 13 19 21 15 10 22 39 58 56 50 47 25 26 25 27 25 24 29
13 10 15 13 14 10 10 12 10 7 7 3 4 6 5 6 7 7 5 4 4 7 20 18 7 4 2 4 2 4 3 4 3 4 3 5 11 17 16 14 9 1 14 30 44 41 40 43 41 26 26 26 25 33
7 9 9 9 12 13 13 8 8 8 4 5 6 6 9 11 12 15 14 11 10 11 14 4 5 3 2 4 2 3 4 5 5 1 4 3 8 17 21 18 22 23 17 7 15 27 37 43 34 31 28 30 30 32
5 5 8 6 8 10 7 7 2 8 6 6 9 7 11 7 9 8 10 11 7 13 11 2 3 3 4 1 5 7 5 4 2 2 4 7 14 22 27 29 23 18 22 27 24 9 13 30 39 42 33 36 39 37
9 2 4 9 10 10 8 5 8 9 7 9 10 14 20 20 17 13 17 9 13 18 4 4 4 2 4 5 5 4 2 3 5 10 9 9 19 21 22 23 27 26 23 19 14 11 12 7 9 24 30 31 37 38
10 2 3 1 4 8 13 4 4 7 11 15 13 12 7 14 13 21 16 13 11 5 4 3 1 4 6 3 3 1 4 4 9 9 11 15 16 14 15 16 19 21 23 23 26 18 11 16 5 12 12 14 22 31
8 6 5 5 9 6 4 6 7 7 13 12 18 25 25 23 28 27 38 30 15 10 6 3 5 5 5 5 4 3 2 9 11 7 5 8 6 4 2 4 9 12 16 20 23 26 23 21 10 8 8 22 31 31
10 3 9 4 13 3 5 7 8 8 9 5 14 16 15 19 27 25 25 27 20 8 9 7 8 6 6 11 2 10 13 13 10 7 10 11 6 8 7 8 10 7 9 15 19 20 20 18 17 13 16 18 24 32
12 1 2 4 8 8 7 5 8 8 11 10 15 13 11 18 22 19 21 28 13 10 11 22 28 37 37 34 27 22 14 9 10 11 11 8 5 2 6 6 4 4 8 15 21 25 24 18 11 3 14 26 19 26
12 6 6 6 4 5 8 8 9 15 10 11 14 8 11 8 8 8 10 13 10 26 35 43 52 51 48 45 47 51 47 36 28 26 23 19 17 14 13 12 12 13 19 23 25 23 20 19 17 18 18 16 17 20
11 10 1 7 5 5 7 8 5 5 5 6 8 6 7 6 6 6 7 9 11 17 20 23 27 27 31 29 30 36 42 44 40 33 27 25 26 24 22 24 29 34 35 34 31 28 25 22 22 22 21 20 20 20
7 6 5 6 8 5 5 5 7 7 7 6 5 7 5 6 4 5 5 6 9 10 11 13 17 21 19 19 21 24 28 30 29 27 23 25 29 34 37 39 41 42 40 35 32 31 29 30 27 26 25 24 23 21
5 5 5 4 6 5 5 5 7 5 6 5 5 6 3 4 4 4 5 2 11 8 16 25 20 20 20 19 16 15 15 22 26 29 29 29 29 26 26 31 32 29 28 31 37 39 39 37 37 37 33 30 28 24
4 7 9 5 5 6 5 5 2 4 6 6 7 7 5 4 5 4 3 8 12 19 24 28 29 27 19 12 10 6 6 14 19 21 15 14 18 22 21 23 25 21 20 23 29 36 41 44 44 43 39 33 29 23
4 6 11 8 7 8 10 13 13 9 8 5 4 6 5 4 4 5 8 12 22 26 29 27 22 18 15 9 7 2 4 5 8 10 10 9 6 9 9 8 9 15 18 18 22 27 33 33 29 23 23 23 21 19
8 5 7 3 6 9 7 7 6 4 6 10 12 6 8 4 5 8 23 23 24 21 24 19 13 10 11 3 2 3 2 3 4 7 9 5 3 4 8 7 13 23 30 35 9 9 7 11 11 9 5 7 12 20
7 6 5 12 10 10 10 8 2 3 10 5 3 4 7 12 23 40 29 21 22 18 15 9 4 7 11 13 10 3 2 7 7 5 2 3 2 6 7 10 12 21 27 30 32 16 11 12 16 15 7 13 18 22
9 15 8 7 8 9 12 18 27 30 32 33 26 26 40 46 42 27 18 15 16 13 5 6 7 6 6 8 13 15 12 11 6 4 3 2 3 4 9 10 10 11 10 15 24 34 39 31 25 18 21 28 27 29
4 10 8 11 10 16 24 29 36 35 28 30 34 40 36 20 16 7 5 9 14 13 11 9 7 7 9 13 17 19 17 16 15 15 15 13 14 14 12 7 7 13 17 22 24 26 31 44 51 56 55 50 44 42
12 16 8 6 9 16 29 9 7 6 7 7 7 8 5 4 4 2 3 8 9 9 12 11 16 26 25 21 21 20 20 20 20 21 20 21 25 25 23 22 22 22 23 24 33 39 43 44 39 32 29 28 29 28
14 13 12 11 9 7 6 9 4 5 4 4 1 1 2 2 1 4 7 8 10 10 11 11 13 16 20 27 23 20 17 19 23 24 31 39 45 48 50 47 40 34 34 38 38 36 37 44 44 44 41 40 40 39
Wind_Direction_850mb
307 310 308 311 317 323 326 323 317 309 301 301 307 299 298 275 264 262 266 253 218 231 256 254 235 220 205 232 269 334 320 165 259 218 231 200 161 175 155 145 169 164 165 184 150 210 247 157 138 199 203 189 205 202
307 309 312 315 317 334 333 325 317 312 305 308 312 285 281 267 274 277 267 274 251 235 261 265 256 247 244 238 266 267 282 321 289 306 161 284 132 154 155 176 175 188 198 173 200 204 126 177 186 204 194 194 203 198
308 312 316 314 308 326 325 322 323 326 321 314 316 317 275 267 272 278 274 266 253 257 275 266 262 273 266 250 235 240 250 223 282 305 7 349 303 124 176 194 137 186 184 148 162 188 202 200 206 208 211 203 209 202
311 314 323 319 330 319 313 314 315 319 326 317 317 285 262 275 274 271 268 269 241 240 265 268 271 266 278 255 225 231 234 252 304 313 47 343 307 204 279 120 221 122 155 158 232 161 162 220 212 211 207 207 200 198
306 314 327 328 328 318 315 316 318 323 339 330 306 288 266 267 273 276 271 263 239 224 293 288 293 290 251 222 214 222 226 235 246 262 154 287 294 256 164 213 221 190 163 192 216 192 179 202 209 208 206 199 195 181
300 302 322 328 316 311 314 318 320 332 330 320 310 298 271 266 269 268 291 251 216 217 280 294 281 281 314 198 217 221 224 208 199 179 332 207 262 304 257 222 234 197 193 209 213 248 204 180 204 205 201 202 192 193
297 285 277 304 316 317 324 336 336 333 322 313 316 301 281 270 253 225 243 297 194 186 255 254 282 281 309 189 190 175 185 190 177 170 225 259 254 219 250 255 273 221 223 221 222 223 210 213 200 197 199 198 199 207
308 279 266 268 291 303 318 332 336 333 330 297 292 280 274 266 259 252 239 244 212 204 259 281 281 301 156 144 171 179 164 183 214 228 198 215 177 207 242 237 254 267 251 234 229 211 210 197 196 195 199 202 205 214
316 311 274 277 274 296 317 324 347 345 322 297 280 301 307 242 236 206 208 227 261 224 291 291 298 326 288 165 158 167 162 163 191 210 214 182 190 213 225 222 230 224 207 211 214 216 223 212 203 206 208 210 215 222
301 311 298 278 262 281 305 304 316 343 345 16 321 276 262 253 245 229 329 168 185 245 232 258 264 276 284 283 192 165 191 163 173 207 154 218 240 231 235 253 247 219 188 172 166 185 203 205 204 210 214 221 230 231
284 287 292 284 270 266 286 298 304 326 302 310 312 316 317 274 187 225 209 211 193 240 205 216 208 255 258 246 180 214 152 152 204 151 221 218 246 238 239 234 236 241 235 230 223 212 218 237 230 229 227 229 233 227
284 267 286 281 267 265 278 293 303 319 324 293 297 300 274 241 246 261 215 181 214 254 211 215 209 221 254 257 250 92 108 194 166 131 214 253 279 333 331 281 235 236 249 247 241 237 232 242 261 272 269 249 235 227
281 259 285 278 249 244 266 287 287 290 325 307 280 270 243 208 274 248 226 217 264 195 235 310 286 222 245 234 208 208 181 108 154 201 230 274 344 340 341 336 244 233 238 240 238 234 237 251 289 264 244 241 243 227
278 277 287 257 233 237 273 292 276 266 325 283 280 290 236 213 234 231 254 293 308 260 315 309 266 234 219 209 55 178 75 169 221 227 238 28 350 6 18 30 56 122 241 229 227 234 231 242 277 247 228 234 233 212
264 290 254 251 219 235 281 258 262 222 278 268 250 239 231 255 273 283 295 287 253 315 330 284 242 278 157 194 74 103 173 214 236 285 48 343 17 44 53 72 75 74 75 116 196 215 233 245 245 224 228 231 233 219
251 227 230 244 252 270 273 229 225 212 243 250 236 265 250 268 314 311 330 311 316 336 344 318 307 217 110 319 213 221 188 216 85 88 145 116 102 78 73 71 73 80 73 66 66 81 223 234 232 229 228 230 234 225
201 200 283 244 250 238 209 212 182 198 218 247 249 246 263 277 269 282 328 336 321 334 337 329 317 3 311 223 223 207 243 87 138 149 149 133 116 96 84 72 69 74 72 63 54 43 46 52 227 219 224 230 233 230
174 290 163 157 203 182 177 226 280 225 239 248 256 271 234 244 270 272 278 302 327 254 261 330 343 240 266 225 173 165 235 188 156 125 131 133 124 100 77 67 62 60 62 57 48 46 54 53 48 210 194 223 262 234
189 154 121 140 156 147 186 224 235 265 250 264 267 275 273 269 266 253 276 283 292 271 279 268 257 242 239 232 274 278 121 102 110 85 106 144 130 124 129 95 81 74 68 55 40 33 39 35 15 62 261 226 272 230
180 97 165 201 201 267 249 214 223 255 268 282 270 270 266 266 275 272 264 267 264 234 216 221 231 228 225 344 181 100 77 78 83 69 79 100 113 129 111 132 134 92 37 9 2 353 347 352 345 335 350 313 237 216
187 174 64 189 212 259 265 259 250 258 287 273 285 288 269 266 262 260 257 257 220 222 235 240 253 261 267 273 273 276 277 354 351 341 340 330 304 219 192 185 212 289 321 324 326 331 331 321 330 345 280 297 270 235
187 155 208 222 244 256 264 244 264 292 270 270 290 246 265 260 246 229 211 194 233 241 240 257 268 279 282 276 264 262 262 267 291 299 303 302 313 294 272 263 264 277 299 303 299 295 295 293 302 308 294 292 280 253
158 198 210 223 234 245 269 284 271 258 270 280 293 264 240 250 241 201 238 225 243 254 256 272 284 289 287 277 257 247 246 254 265 276 281 277 277 293 296 291 294 293 294 293 287 265 261 267 281 302 298 277 279 258
173 184 253 204 214 265 275 246 239 261 269 259 248 264 231 240 247 242 254 245 242 283 299 314 312 311 309 287 274 264 246 242 247 246 258 276 286 288 284 286 290 289 283 271 260 256 254 257 270 285 299 288 265 258
180 236 244 228 226 246 248 251 230 234 256 239 259 268 274 258 253 238 242 300 328 326 348 347 338 334 313 305 305 268 240 231 239 251 257 272 280 283 286 295 295 291 281 265 254 252 256 255 259 270 280 282 266 261
244 217 190 224 207 208 227 259 235 302 275 259 239 265 285 287 258 276 9 331 334 334 339 336 330 327 338 327 315 259 238 233 239 246 256 280 285 288 297 304 306 301 285 270 261 257 255 255 257 261 264 259 253 251
246 236 222 233 268 290 274 253 240 239 255 257 346 327 343 267 302 287 302 327 326 330 327 325 319 321 337 33 66 87 233 246 250 251 247 260 266 327 342 15 23 11 353 311 281 268 256 251 250 251 244 238 243 233
250 283 240 232 247 240 267 279 263 306 334 348 334 14 344 300 272 305 309 320 313 318 328 328 326 326 329 276 294 96 98 337 135 146 145 165 345 44 57 75 37 18 12 16 17 71 112 154 163 168 184 256 222 196
242 237 242 256 237 243 232 235 234 258 240 280 288 227 237 243 282 317 326 322 323 328 336 346 31 41 72 71 63 18 253 139 118 140 128 231 245 158 123 80 47 20 10 14 30 62 91 107 124 136 131 126 113 122
239 198 218 240 227 226 228 203 248 258 261 255 258 269 270 281 296 299 304 325 337 341 13 116 97 94 96 75 44 59 118 137 121 130 108 101 102 169 214 267 289 326 10 57 57 72 80 88 100 110 122 120 123 126
200 184 230 237 258 247 248 253 268 272 259 256 254 248 260 284 312 336 338 12 34 74 86 58 60 123 116 106 95 93 94 95 92 86 88 101 101 103 103 89 82 104 109 98 91 95 95 99 100 101 102 102 103 105
207 213 226 248 264 285 301 263 251 247 226 225 230 229 257 241 268 29 82 48 43 57 61 68 95 110 98 96 106 108 111 104 94 85 83 88 96 98 98 98 101 110 114 108 102 105 107 106 105 104 102 102 109 112
215 227 232 265 263 273 283 313 267 303 253 272 20 339 250 270 12 117 112 61 63 68 81 104 120 106 100 102 105 109 112 105 104 94 97 97 95 94 91 89 91 99 106 105 104 102 101 102 102 104 105 105 107 108